Weather History for Lake Charles, LA

Change the Weather History Date:

Sunday, January 6, 2013

  Actual Average Record
Temperature  
Mean Temperature 50 °F -  
Max Temperature 57 °F 60 °F 75 °F (2008)
Min Temperature 43 °F 45 °F 26 °F (2014)
Degree Days  
Heating Degree Days 15    
Moisture  
Dew Point 42 °F    
Average Humidity 82    
Maximum Humidity 94    
Minimum Humidity 51    
Precipitation  
Precipitation 0.01 in - - ()
Sea Level Pressure  
Sea Level Pressure 30.27 in    
Wind  
Wind Speed 7 mph (North)    
Max Wind Speed 14 mph    
Max Gust Speed 20 mph    
Visibility 9 miles    
Events Rain    
Averages and records for this station are not official NWS values.
T = Trace of Precipitation, MM = Missing Value Source: NWS Daily Summary

Daily Weather History Graph

Daily Weather History Graph

Search for Another Location

Airport:

Trip Planner

Search our weather history database for the weather conditions in past years. The results will help you decide how hot, cold, wet, or windy it might be!

Date:

Astronomy

Jan. 06, 2013 Rise Set
Actual Time 7:09 AM CST 5:27 PM CST
Civil Twilight 6:43 AM CST 5:53 PM CST
Nautical Twilight 6:13 AM CST 6:23 PM CST
Astronomical Twilight 5:44 AM CST 6:52 PM CST
Moon 1:34 AM CST (1/6) 12:47 PM CST (1/6)
Length of Visible Light 11h 10m
Length of Day
10h 17m
Waning Crescent, 33% of the Moon is Illuminated
Jan 6
Waning Crescent
Jan 11
New
Jan 18
First Quarter
Jan 26
Full
Feb 3
Last Quarter

Hourly Weather History & Observations

Time (CST) Temp. Windchill Dew Point Humidity Pressure Visibility Wind Dir Wind Speed Gust Speed Precip Events Conditions
12:15 AM 45.5 °F 43.2 °F 43.7 °F 93% 30.25 in 7.0 mi North 4.6 mph - N/A Rain Light Rain
12:35 AM 45.3 °F 42.3 °F 43.5 °F 93% 30.25 in 10.0 mi North 5.8 mph - 0.01 in Rain Light Rain
12:55 AM 45.5 °F 43.2 °F 43.7 °F 93% 30.25 in 10.0 mi North 4.6 mph - 0.01 in   Overcast
1:15 AM 45.5 °F 43.2 °F 43.7 °F 93% 30.25 in 10.0 mi North 4.6 mph - N/A   Light Drizzle
1:35 AM 45.3 °F 41.6 °F 43.7 °F 94% 30.25 in 10.0 mi North 6.9 mph - N/A   Overcast
1:55 AM 45.3 °F 41.1 °F 43.5 °F 93% 30.25 in 10.0 mi North 8.1 mph - N/A   Overcast
2:15 AM 45.3 °F 40.6 °F 43.5 °F 93% 30.24 in 10.0 mi North 9.2 mph - N/A   Overcast
2:35 AM 45.0 °F 39.3 °F 43.2 °F 93% 30.24 in 10.0 mi North 11.5 mph 18.4 mph N/A   Overcast
2:55 AM 45.0 °F 39.7 °F 43.2 °F 93% 30.25 in 10.0 mi North 10.4 mph 16.1 mph N/A   Overcast
3:15 AM 45.1 °F 39.9 °F 43.3 °F 93% 30.25 in 10.0 mi North 10.4 mph - N/A   Overcast
3:35 AM 45.5 °F 40.3 °F 43.7 °F 93% 30.25 in 5.0 mi North 10.4 mph 17.3 mph N/A   Overcast
3:55 AM 45.5 °F 40.3 °F 43.7 °F 93% 30.25 in 2.5 mi North 10.4 mph 19.6 mph N/A   Overcast
4:15 AM 45.3 °F 40.1 °F 43.7 °F 94% 30.25 in 3.0 mi North 10.4 mph 16.1 mph N/A   Overcast
4:35 AM 45.5 °F 40.3 °F 43.7 °F 93% 30.25 in 5.0 mi North 10.4 mph 16.1 mph N/A   Overcast
4:55 AM 45.1 °F 39.5 °F 43.3 °F 93% 30.24 in 4.0 mi North 11.5 mph - N/A   Overcast
5:35 AM 45.1 °F 42.0 °F 43.3 °F 93% 30.26 in 5.0 mi North 5.8 mph - N/A   Overcast
5:55 AM 45.5 °F 40.8 °F 43.3 °F 92% 30.27 in 10.0 mi North 9.2 mph - N/A   Overcast
6:00 AM 44.6 °F 39.7 °F 42.8 °F 93% 30.26 in 7.0 mi North 9.2 mph - N/A   Overcast
6:50 AM 46.4 °F 41.9 °F 42.8 °F 87% 30.28 in 7.0 mi North 9.2 mph 16.1 mph N/A   Overcast
7:50 AM 46.4 °F 41.9 °F 42.8 °F 87% 30.29 in 10.0 mi North 9.2 mph - N/A   Overcast
8:50 AM 46.4 °F 41.9 °F 42.8 °F 87% 30.31 in 10.0 mi North 9.2 mph - N/A   Mostly Cloudy
10:50 AM 51.8 °F - 41.0 °F 67% 30.31 in 10.0 mi NNE 13.8 mph - N/A   Scattered Clouds
12:50 PM 55.4 °F - 42.8 °F 63% 30.27 in 10.0 mi NNE 12.7 mph - N/A   Scattered Clouds
1:53 PM 57.2 °F - 42.8 °F 59% 30.25 in 10.0 mi NNE 8.1 mph - N/A   Clear
2:50 PM 57.2 °F - 41.0 °F 55% 30.24 in 10.0 mi North 8.1 mph - N/A   Clear
3:50 PM 57.2 °F - 39.2 °F 51% 30.25 in 10.0 mi NNE 5.8 mph - N/A   Scattered Clouds
4:45 PM 57.2 °F - 41.0 °F 55% 30.25 in 10.0 mi North 5.8 mph - N/A   Scattered Clouds
5:50 PM 53.6 °F - 41.0 °F 62% 30.27 in 10.0 mi North 3.5 mph - N/A   Clear
6:55 PM 51.8 °F - 39.2 °F 62% 30.29 in 10.0 mi East 6.9 mph - N/A   Clear
7:50 PM 50.0 °F - 39.2 °F 66% 30.30 in 10.0 mi North 6.9 mph - N/A   Clear
8:50 PM 46.4 °F 45.2 °F 39.2 °F 76% 30.32 in 10.0 mi North 3.5 mph - N/A   Clear
9:45 PM 46.4 °F 45.2 °F 39.2 °F 76% 30.33 in 10.0 mi NNE 3.5 mph - N/A   Clear
10:15 PM 45.9 °F 44.6 °F 40.1 °F 80% 30.32 in 10.0 mi NNE 3.5 mph - N/A   Clear
10:35 PM 45.3 °F 43.0 °F 39.7 °F 81% 30.33 in 10.0 mi North 4.6 mph - N/A   Clear
10:55 PM 43.5 °F 40.9 °F 39.2 °F 85% 30.33 in 10.0 mi North 4.6 mph - N/A   Clear
11:35 PM 45.5 °F 42.5 °F 39.7 °F 80% 30.33 in 10.0 mi NNE 5.8 mph - N/A   Clear
11:55 PM 44.8 °F 41.6 °F 39.2 °F 81% 30.33 in 10.0 mi NNE 5.8 mph - N/A   Clear